Weather in Chistyye Bory

Russia / Kostroma Oblast     58°22′08″N   41°39′31″E
temp.,
°C
wind,
m/s
gust,
m/s
humid.,
%
clouds,
%
prec.,
mm/h
press.,
hPa
HPBL,
m
7 march, sun
sun700:00−15ssw339848 0.0 101061
03:00−16s489645 0.0 1007154
06:00−13s5129293 0.0 1003319
09:00−10s6139396 0.1 999646
12:00−8s71291100 0.7 995774
15:00−7sse61192100 1.2 991833
18:00−7sse61194100 0.9 989651
21:00−8wnw61292100 2.4 989700
8 march, mon
mon800:00−11wsw3791100 0.1 990156
03:00−16wsw239068 0.1 99125
06:00−17w229616 0.0 99120
09:00−14w239451 0.0 993122
12:00−8nnw248998 0.1 995528
15:00−9n578999 0.4 998732
18:00−12n4992100 0.1 1001457
21:00−15n41093100 0.2 1007428
9 march, tue
tue900:00−20nnw389889 0.0 1009172
03:00−23nnw369867 0.0 1011127
06:00−26nnw35980 0.0 101394
09:00−24nnw359620 0.0 1015232
12:00−19nnw359172 0.0 1015386
15:00−17nnw468985 0.0 1017592
18:00−21nnw3597100 0.0 1018116
21:00−24n369896 0.1 1020126
10 march, wed
wed1000:00−28n339817 0.0 102258
03:00−30n33989 0.0 102347
06:00−31n23990 0.0 102444
09:00−27nnw25960 0.0 1025193
12:00−19nw34849 0.0 1025369
15:00−15wnw46814 0.0 1024521
18:00−17w379234 0.0 1024174
21:00−20wnw379760 0.0 1025164
11 march, thu
thu1100:00−22wnw349978 0.0 102579
03:00−22wnw339969 0.0 102665
06:00−23wnw33980 0.0 102645
09:00−19wnw24940 0.0 1027171
12:00−13w34850 0.0 1026345
15:00−10w34820 0.0 1025508
18:00−15sw23930 0.0 102526
21:00−18s33910 0.0 102534